Location: *
(43.4667°N, 11.6833°E)
Time: 18:32:02
(UTC+00:00)

Lacrosse 5 rocket - Pass Details

Date: 19 July 2019
Orbit: 464 x 634 km, 57.0° (Epoch: 23 August)

Event Time Altitude Azimuth Distance (km) Brightness Sun altitude
Rises 23:39:23 0° 309° (NW) 2,920 5.5 -25.6°
Reaches altitude 10° 23:41:46 10° 305° (NW) 1,997 4.5 -25.6°
Enters shadow 23:44:30 33° 288° (WNW) 1,036 2.7 -25.5°
